STARLINK-1790, 46691

Orbit data source: Space-Track

STARLINK-1790, 46691 is a payload satellite owned by SpaceX/Seattle (US) in LEO that was launched on Sun, 18 Oct 2020 UTC via an FALCON 9 launch vehicle from the Air Force Eastern Test Range (AFETR). Payload-class satellites include a variety of spacecraft equipped with specific instruments for various scientific and technological missions. These include communications satellites like Starlink; space stations such as the ISS; scientific satellites like the Hubble; Earth observation satellites from companies like Planet Labs, Umbra, and HawkEye 360; GPS; miniature CubeSats for education and research; and military/defense satellites.

Loading next visibility...
Identifier
46691, 2020-073X
Orbit
LEO
Country
Flag of USUS
Related business
Manufacturer
SpaceX/Seattle
Mission
Operational Commercial Communications
Bus & Motor
STARLINK, Unknown motor
Mass
260 kg wet, ~248 kg dry
Launch date (UTC)
2020-10-18 (5 years ago)
Launch vehicle
FALCON 9
Launch site
Air Force Eastern Test Range (AFETR)
Object type
Payload
Rocket body
Debris
Shape & HBR
Box + 1 Pan, 10.1 m
Radar Cross Section
13.562 m², Large (>1 m²)

Expand to show TLE details & history
Last TLE update: 13 hours ago

TLE from 13 hours ago
0 STARLINK-1790
1 46691U 20073X   25295.21722731  .00089660  00000-0  59305-2 0  9999
2 46691  53.0513 143.2426 0001028 178.5096 181.5897 15.06597057276250
Epoch: 2025-10-22T05:12Z
TLE epoch observation values (Epoch: 2025-10-22T05:12:48.439Z)
Latitude
0.00003°
Longitude
34.14679°
Altitude
548.198 km
Speed
7.589 km/s
True Right ascension
09h 32m 58s
True Declination
0° 00' 00"
Sunlit
Object was in daylight at epoch
Visualization orbit readout
Latitude
Unknown
Longitude
Unknown
Altitude
Unknown
Speed
Unknown
Apparent Right ascension
Unknown
Apparent Declination
Unknown
Sunlit
N/A
Visualization observer readout
Local Sidereal Time
13:38:32
Azimuth
Unknown
Elevation
Unknown
Doppler factor
Unknown
Orbital elements
Apogee altitude
547.591 km
Perigee altitude
546.167 km
Semi-major axis
6,925.016 km
Eccentricity
0.0001
Inclination
53.0513°
RAAN
143.2426°
Arg. of periapsis
178.5096°
True anomaly
181.58937°
Mean anomaly
181.5897°
Eccentric anomaly
181.58954°
Mean motion
3.76627 °/min
Orbital period
95.59 mins
BSTAR
0.0059305
Loading maneuver chart data...
Computing Atmospheric mass density...
Loading historical data...
Loading historical data...
Loading historical data...
Loading historical data...
Loading historical data...
Loading historical data...
Loading historical data...

Documentation

Showing up to 5 results
|